Total_Precipitation_Accumulation
1.01 0.95 0.75 0.56 0.50 0.39 0.33 0.35 0.51 0.32 0.08 0.02 0.03 0.07 0.16 0.23 0.31 0.41 0.52 0.50 0.42 0.39 0.45 0.41 0.33 0.39 0.62 0.74 0.78 0.91 1.12 1.20 1.04 0.95 0.89 0.95 1.09 1.19
0.91 0.81 0.70 0.51 0.43 0.43 0.42 0.36 0.37 0.51 0.53 0.18 0.13 0.12 0.13 0.15 0.18 0.26 0.47 0.61 0.48 0.46 0.49 0.53 0.54 0.53 0.48 0.67 0.94 1.00 1.05 1.17 1.19 1.20 1.25 1.07 1.05 1.16
0.80 0.76 0.68 0.64 0.68 0.59 0.58 0.59 0.59 0.64 0.64 0.28 0.19 0.18 0.18 0.17 0.16 0.27 0.42 0.61 0.73 0.57 0.36 0.41 0.50 0.57 0.62 0.58 0.63 1.01 1.39 1.28 1.07 0.97 1.01 1.12 1.16 1.13
0.80 0.87 0.84 0.76 0.75 0.62 0.56 0.46 0.39 0.41 0.63 0.58 0.37 0.38 0.43 0.32 0.22 0.19 0.23 0.35 0.51 0.68 0.61 0.36 0.31 0.39 0.52 0.69 0.73 0.74 0.91 1.38 1.38 1.07 0.90 0.96 1.12 1.28
0.66 0.55 0.49 0.47 0.41 0.36 0.34 0.37 0.47 0.63 0.81 0.83 0.67 0.51 0.42 0.33 0.29 0.28 0.24 0.22 0.27 0.54 0.60 0.66 0.52 0.35 0.35 0.41 0.52 0.63 0.62 0.65 1.03 1.31 1.12 0.96 0.93 0.99
0.58 0.48 0.38 0.36 0.39 0.51 0.63 0.74 0.83 0.86 0.76 0.68 0.61 0.60 0.55 0.45 0.42 0.44 0.44 0.44 0.43 0.49 0.69 0.80 0.78 0.65 0.45 0.38 0.42 0.47 0.57 0.73 0.78 0.94 1.28 1.27 1.03 1.03
0.40 0.45 0.54 0.70 0.65 0.57 0.53 0.46 0.51 0.58 0.63 0.71 0.70 0.63 0.56 0.53 0.55 0.58 0.58 0.52 0.49 0.45 0.52 0.59 0.68 0.75 0.79 0.60 0.45 0.47 0.55 0.59 0.68 0.77 0.82 1.01 1.25 1.09
0.56 0.45 0.44 0.70 0.55 0.70 0.67 0.69 0.67 0.72 0.72 0.71 0.74 0.73 0.66 0.62 0.61 0.64 0.61 0.55 0.48 0.31 0.35 0.42 0.55 0.64 0.70 0.72 0.59 0.47 0.43 0.51 0.54 0.60 0.69 0.70 0.78 1.14
0.61 0.62 0.68 0.80 0.88 0.59 0.74 0.68 0.64 0.66 0.64 0.69 0.76 0.61 0.56 0.46 0.42 0.43 0.37 0.36 0.31 0.20 0.32 0.38 0.38 0.51 0.52 0.68 0.74 0.54 0.47 0.51 0.58 0.61 0.62 0.70 0.68 0.72
0.60 0.55 0.53 0.56 0.67 0.61 0.54 0.60 0.53 0.41 0.34 0.30 0.36 0.31 0.24 0.21 0.28 0.36 0.42 0.47 0.33 0.15 0.26 0.60 0.30 0.40 0.40 0.46 0.67 0.86 0.75 0.67 0.72 0.78 0.74 0.68 0.75 0.73
0.36 0.45 0.52 0.58 0.83 0.68 0.68 0.67 0.38 0.24 0.19 0.18 0.22 0.23 0.24 0.26 0.31 0.64 0.71 0.76 0.53 0.19 0.22 0.52 0.31 0.35 0.40 0.52 0.65 0.70 0.90 1.01 0.90 0.88 0.91 0.81 0.76 0.82
0.47 0.62 0.72 0.50 0.54 0.45 0.60 0.62 0.56 0.24 0.16 0.19 0.20 0.16 0.12 0.15 0.16 0.46 0.64 0.83 0.61 0.50 0.25 0.50 0.31 0.39 0.68 0.53 0.52 0.72 0.83 0.89 0.98 0.92 0.81 0.84 0.84 0.90
0.43 0.41 0.47 0.61 0.50 0.37 0.39 0.58 0.56 0.31 0.26 0.29 0.29 0.25 0.22 0.22 0.23 0.29 0.45 0.77 0.75 0.50 0.07 0.58 0.47 0.28 0.58 0.52 0.57 0.63 0.74 0.91 0.97 1.03 0.99 0.86 0.80 0.81
0.74 0.71 0.76 0.60 0.48 0.41 0.41 0.47 0.40 0.38 0.51 0.52 0.47 0.37 0.36 0.31 0.28 0.28 0.29 0.34 0.39 0.44 0.20 0.69 1.01 0.41 0.59 0.60 0.46 0.62 0.78 0.94 1.15 1.00 1.04 1.09 1.01 0.95
0.73 0.69 0.59 0.50 0.45 0.47 0.41 0.41 0.44 0.65 0.67 0.62 0.50 0.34 0.26 0.24 0.22 0.29 0.34 0.42 0.42 0.41 0.35 0.50 0.56 0.37 0.58 0.65 0.52 0.53 0.80 0.92 0.86 0.83 0.90 0.93 0.91 0.86
0.58 0.52 0.52 0.49 0.47 0.51 0.53 0.49 0.62 0.65 0.57 0.54 0.38 0.31 0.31 0.33 0.34 0.34 0.40 0.45 0.79 0.75 0.47 0.41 0.40 0.59 0.72 0.47 0.39 0.44 0.42 0.70 0.81 0.80 0.78 0.85 0.87 0.82
0.72 0.76 0.64 0.50 0.43 0.36 0.34 0.28 0.28 0.27 0.35 0.35 0.35 0.30 0.34 0.29 0.31 0.34 0.37 0.33 0.55 0.38 0.47 0.45 0.44 0.50 0.53 0.53 0.68 0.41 0.45 0.57 0.69 0.72 0.79 0.83 0.83 0.97
0.63 0.48 0.36 0.35 0.35 0.32 0.38 0.38 0.26 0.26 0.24 0.26 0.34 0.31 0.36 0.43 0.35 0.30 0.37 0.46 0.39 0.39 0.36 0.34 0.45 0.81 0.79 0.53 0.38 0.52 0.99 0.96 0.73 0.57 0.62 0.79 0.83 0.83
0.57 0.43 0.40 0.41 0.40 0.37 0.35 0.35 0.39 0.42 0.35 0.37 0.41 0.40 0.33 0.33 0.41 0.33 0.34 0.47 0.44 0.34 0.45 0.52 0.58 0.67 0.85 0.88 0.38 0.28 0.58 0.54 0.52 0.51 0.54 0.70 0.94 0.84
0.34 0.36 0.36 0.31 0.27 0.22 0.21 0.25 0.26 0.29 0.30 0.29 0.38 0.34 0.32 0.32 0.34 0.33 0.32 0.36 0.38 0.32 0.28 0.30 0.39 0.48 0.68 0.65 0.67 0.39 0.35 0.43 0.53 0.59 0.60 0.64 0.72 0.78
0.22 0.24 0.27 0.27 0.22 0.19 0.22 0.24 0.28 0.30 0.29 0.30 0.32 0.31 0.28 0.31 0.27 0.25 0.25 0.24 0.25 0.27 0.30 0.26 0.24 0.32 0.44 0.52 0.64 0.55 0.53 0.39 0.40 0.59 0.68 0.85 0.73 0.62
0.27 0.26 0.22 0.24 0.26 0.23 0.22 0.23 0.22 0.22 0.22 0.23 0.27 0.29 0.31 0.32 0.30 0.29 0.27 0.27 0.24 0.22 0.21 0.18 0.21 0.26 0.38 0.42 0.53 0.48 0.50 0.56 0.39 0.32 0.51 0.69 0.78 0.83
0.28 0.27 0.22 0.22 0.22 0.24 0.24 0.23 0.21 0.21 0.23 0.25 0.24 0.26 0.30 0.32 0.30 0.31 0.30 0.27 0.26 0.24 0.20 0.22 0.24 0.26 0.24 0.22 0.38 0.50 0.36 0.40 0.50 0.42 0.50 0.42 0.38 0.42